N7JP Weather Reports


Display with metric or nautical units.
time (UTC)temp
F
wind
direction
speed
MPH
gust
MPH
rain 1hr
in
rain 24hr
in
rain mn
in
humidity
%
barometer
mb
20260503215509 73 261 5.0 13.0 0.00 0.00 0.00 53 1006.9
20260503213950 73 297 4.0 10.0 0.00 0.00 0.00 51 1007.1
20260503212448 73 44 4.0 12.0 0.00 0.00 0.00 51 1007.2
20260503210950 72 298 6.0 12.0 0.00 0.00 0.00 55 1007.4
20260503205433 72 311 5.0 11.0 0.00 0.00 0.00 53 1007.4
20260503203931 71 355 4.0 12.0 0.00 0.00 0.00 56 1007.5
20260503202411 71 286 3.0 10.0 0.00 0.00 0.00 59 1007.5
20260503200910 71 64 4.0 10.0 0.00 0.00 0.00 59 1007.7
20260503195400 69 215 3.0 9.0 0.00 0.00 0.00 63 1008.0
20260503193840 69 279 4.0 11.0 0.00 0.00 0.00 64 1008.2
20260503192342 68 304 4.0 11.0 0.00 0.00 0.00 65 1008.3
20260503190837 67 285 4.0 10.0 0.00 0.00 0.00 62 1008.4
20260503185338 66 312 3.0 8.0 0.00 0.00 0.00 64 1008.5
20260503183836 67 85 3.0 9.0 0.00 0.00 0.00 63 1008.6
20260503182340 67 32 4.0 9.0 0.00 0.00 0.00 64 1008.7
20260503180837 67 304 4.0 12.0 0.00 0.00 0.00 64 1008.8
20260503175334 68 336 3.0 12.0 0.00 0.00 0.00 64 1009.0
20260503173834 67 332 3.0 11.0 0.00 0.00 0.00 64 1009.0
20260503172333 67 286 3.0 10.0 0.00 0.00 0.00 66 1009.1
20260503170824 67 67 3.0 9.0 0.00 0.00 0.00 65 1009.3
20260503150801 58 307 1.0 5.0 0.00 0.00 0.00 79 1009.6
20260503130644 54 333 1.0 6.0 0.00 0.00 0.00 83 1009.2
20260503110533 52 67 1.0 3.0 0.00 0.00 0.00 86 1009.4
20260503090456 55 57 0.0 3.0 0.00 0.00 0.00 79 1009.4
20260503080435 58 53 2.0 8.0 0.00 0.00 0.00 71 1009.2
20260503071924 55 26 1.0 4.0 0.00 0.00 0.00 79 1009.3
20260503070424 56 42 2.0 3.0 0.00 0.00 0.00 79 1009.1
20260503054851 59 42 2.0 6.0 0.00 0.00 0.00 71 1009.0
20260503053342 58 30 1.0 5.0 0.00 0.00 0.00 74 1009.0
20260503051829 58 5 1.0 3.0 0.00 0.00 0.00 73 1009.0
20260503050306 59 24 0.0 3.0 0.00 0.00 0.00 71 1009.0
20260503044807 59 36 0.0 4.0 0.00 0.00 0.00 72 1008.9
20260503043308 59 46 0.0 1.0 0.00 0.00 0.00 70 1008.8
20260503041801 59 25 0.0 1.0 0.00 0.00 0.00 70 1008.7
20260503040253 60 321 0.0 0.0 0.00 0.00 0.00 71 1008.6
20260503034725 60 320 0.0 2.0 0.00 0.00 0.00 69 1008.4
20260503033203 62 304 0.0 3.0 0.00 0.00 0.00 65 1008.3
20260503031703 64 298 0.0 7.0 0.00 0.00 0.00 61 1008.1
20260503030202 65 321 3.0 8.0 0.00 0.00 0.00 57 1008.1
20260503024659 66 288 4.0 8.0 0.00 0.00 0.00 57 1008.0
20260503021649 68 302 5.0 11.0 0.00 0.00 0.00 52 1008.0
20260503020126 68 303 5.0 12.0 0.00 0.00 0.00 51 1008.1
20260503014623 70 297 3.0 10.0 0.00 0.00 0.00 53 1008.2
20260503011626 70 277 2.0 7.0 0.00 0.00 0.00 52 1008.4
20260503010058 70 62 2.0 8.0 0.00 0.00 0.00 56 1008.4
20260503004556 70 273 3.0 14.0 0.00 0.00 0.00 54 1008.5
20260503003053 71 258 4.0 12.0 0.00 0.00 0.00 51 1008.4
20260503001553 71 327 5.0 15.0 0.00 0.00 0.00 51 1008.4
20260503000058 70 306 7.0 16.0 0.00 0.00 0.00 49 1008.7
20260502234527 70 317 7.0 14.0 0.00 0.00 0.00 48 1008.8
20260502233013 70 283 5.0 12.0 0.00 0.00 0.00 51 1009.0
20260502231512 70 310 6.0 13.0 0.00 0.00 0.00 55 1009.2
20260502225956 68 284 3.0 13.0 0.00 0.00 0.00 59 1009.4
20260502224434 68 269 5.0 12.0 0.00 0.00 0.00 61 1009.6
20260502222913 68 25 5.0 11.0 0.00 0.00 0.00 64 1009.8
20260502221407 67 292 5.0 15.0 0.00 0.00 0.00 64 1010.1